Weather History for KBMQ - December, 2010

Change the Weather History Date:

Saturday, December 4, 2010

  Actual Average Record
Temperature  
Mean Temperature 60 °F -  
Max Temperature 73 °F 60 °F 78 °F (1998)
Min Temperature 46 °F 41 °F 25 °F (2006)
Degree Days  
Heating Degree Days 6    
Growing Degree Days 10 (Base 50)    
Moisture  
Dew Point 40 °F    
Average Humidity 59    
Maximum Humidity 97    
Minimum Humidity 22    
Precipitation  
Precipitation 0.00 in - - ()
Sea Level Pressure  
Sea Level Pressure 30.10 in    
Wind  
Wind Speed 7 mph (NW)    
Max Wind Speed 15 mph    
Max Gust Speed 21 mph    
Visibility 9 miles    
Events      
Averages and records for this station are not official NWS values.
T = Trace of Precipitation, MM = Missing Value Source: NWS Daily Summary

Daily Weather History Graph

Daily Weather History Graph

Search for Another Location

Airport or City:

Trip Planner

Search our weather history database for the weather conditions in past years. The results will help you decide how hot, cold, wet, or windy it might be!

Date:

Astronomy

Dec. 04, 2010 Rise Set
Actual Time 7:15 AM CST 5:31 PM CST
Civil Twilight 6:48 AM CST 5:57 PM CST
Nautical Twilight 6:19 AM CST 6:27 PM CST
Astronomical Twilight 5:49 AM CST 6:56 PM CST
Moon 6:11 AM CST (12/4) 4:38 PM CST (12/4)
Length of Visible Light 11h 08m
Length of Day
10h 15m
Waning Crescent, 1% of the Moon is Illuminated
Dec 4
Waning Crescent
Dec 5
New
Dec 13
First Quarter
Dec 21
Full
Dec 27
Last Quarter

Hourly Weather History & Observations

Time (CST) Temp. Windchill Dew Point Humidity Pressure Visibility Wind Dir Wind Speed Gust Speed Precip Events Conditions
12:53 AM 54.0 °F - 50.0 °F 86% 30.01 in 10.0 mi SSW 3.5 mph - N/A   Clear
1:53 AM 53.1 °F - 50.0 °F 89% 30.00 in 10.0 mi SW 5.8 mph - N/A   Clear
2:53 AM 51.1 °F - 48.9 °F 92% 29.99 in 10.0 mi WSW 3.5 mph - N/A   Clear
3:53 AM 51.1 °F - 48.9 °F 92% 29.98 in 9.0 mi SW 4.6 mph - N/A   Clear
4:53 AM 52.0 °F - 50.0 °F 93% 29.97 in 8.0 mi SW 4.6 mph - N/A   Clear
5:53 AM 50.0 °F - 48.9 °F 96% 29.99 in 7.0 mi WSW 3.5 mph - N/A   Clear
6:53 AM 46.9 °F - 46.0 °F 97% 30.01 in 7.0 mi SW 4.6 mph - N/A   Clear
7:53 AM 51.1 °F - 50.0 °F 96% 30.05 in 3.0 mi SW 4.6 mph - N/A   Clear
8:53 AM 57.0 °F - 54.0 °F 89% 30.07 in 10.0 mi WNW 4.6 mph - N/A   Clear
10:53 AM 66.0 °F - 50.0 °F 56% 30.10 in 10.0 mi WNW 10.4 mph - N/A   Clear
11:53 AM 69.1 °F - 43.0 °F 39% 30.08 in 10.0 mi NW 9.2 mph - N/A   Clear
12:53 PM 73.0 °F - 37.9 °F 28% 30.07 in 10.0 mi NW 10.4 mph - N/A   Clear
1:53 PM 71.1 °F - 30.0 °F 22% 30.07 in 10.0 mi North 12.7 mph - N/A   Clear
2:53 PM 70.0 °F - 35.1 °F 28% 30.08 in 10.0 mi North 10.4 mph 20.7 mph N/A   Clear
3:53 PM 68.0 °F - 37.0 °F 32% 30.11 in 10.0 mi NNE 15.0 mph 18.4 mph N/A   Clear
4:53 PM 64.9 °F - 37.0 °F 36% 30.12 in 10.0 mi NNE 13.8 mph 18.4 mph N/A   Clear
5:53 PM 61.0 °F - 36.0 °F 39% 30.16 in 10.0 mi North 6.9 mph - N/A   Clear
6:53 PM 57.9 °F - 33.1 °F 39% 30.20 in 10.0 mi NNE 8.1 mph 16.1 mph N/A   Clear
7:53 PM 55.0 °F - 30.0 °F 38% 30.23 in 10.0 mi North 9.2 mph - N/A   Clear
8:53 PM 52.0 °F - 27.0 °F 38% 30.25 in 10.0 mi North 13.8 mph 20.7 mph N/A   Clear
9:53 PM 48.9 °F - 25.0 °F 39% 30.27 in 10.0 mi North 11.5 mph - N/A   Clear
10:53 PM 46.9 °F - 25.0 °F 42% 30.27 in 10.0 mi North 11.5 mph 17.3 mph N/A   Clear
11:53 PM 46.0 °F 40.6 °F 25.0 °F 44% 30.28 in 10.0 mi NNE 11.5 mph 17.3 mph N/A   Clear